Consulta los datos en tiempo real de la estación meteorológica de Mataró
| Hora UTC | 07:35 |
|---|---|
| Temperatura | 30.5 ºC |
| Suelo 15 cm | 36.8 ºC |
| Humedad | 48.5 % |
| Presión | 1020.5 hPa |
| Pluja | 0.0 mm |
| Velocidad viento | 3.9 km/h |
| Dirección viento | SSE |
| Radiación solar | 310.5 W/m² |
| Temperatura (ºC) | Humedad (%) | Presión (hPa) | Velocidad viento (km/h) | Precipitación (mm) | Radiación solar (W/m²) | ||||||||||||||
|---|---|---|---|---|---|---|---|---|---|---|---|---|---|---|---|---|---|---|---|
| Hora UTC | Aire | Suelo 15 cm | Humedad | Presión | Vel. | Dir. | Vel. Max | Dir. | Intent. máx 5 min. | Rad. Sol. | |||||||||
| 00:05 | 29.5 | 28.3 | 46.5 | 1018.8 | 10.7 | NW | 10.7 | NW | 0.0 | 0.1 | |||||||||
| 00:10 | 29.5 | 28.3 | 46.1 | 1018.7 | 12.9 | NNW | 21.5 | NNW | 0.0 | 0.1 | |||||||||
| 00:15 | 29.6 | 28.4 | 45.6 | 1018.7 | 12.3 | NNW | 19.4 | NW | 0.0 | 0.1 | |||||||||
| 00:20 | 29.7 | 28.5 | 46.2 | 1018.8 | 10.6 | NNW | 17.6 | NNW | 0.0 | 0.1 | |||||||||
| 00:25 | 29.5 | 28.4 | 48.4 | 1018.8 | 8.7 | NW | 13.1 | WNW | 0.0 | 0.1 | |||||||||
| 00:30 | 29.1 | 28.2 | 51.9 | 1018.8 | 9.7 | NW | 14.5 | NW | 0.0 | 0.1 | |||||||||
| 00:35 | 28.8 | 27.9 | 54.7 | 1018.7 | 7.6 | NW | 13.8 | NW | 0.0 | 0.1 | |||||||||
| 00:40 | 28.5 | 27.5 | 54.8 | 1018.7 | 7.0 | NW | 11.3 | NW | 0.0 | 0.1 | |||||||||
| 00:45 | 28.5 | 27.2 | 51.5 | 1018.6 | 6.4 | NW | 11.3 | NW | 0.0 | 0.1 | |||||||||
| 00:50 | 28.5 | 27.0 | 50.1 | 1018.7 | 5.5 | NW | 12.0 | NNW | 0.0 | 0.1 | |||||||||
| 00:55 | 28.5 | 26.8 | 52.3 | 1018.7 | 3.6 | WNW | 6.7 | WNW | 0.0 | 0.1 | |||||||||
| 01:00 | 28.3 | 26.4 | 49.6 | 1018.8 | 0.9 | NW | 4.2 | NW | 0.0 | 0.1 | |||||||||
| 01:05 | 28.2 | 25.9 | 49.5 | 1018.7 | 0.3 | WNW | 2.5 | WSW | 0.0 | 0.1 | |||||||||
| 01:10 | 28.0 | 25.4 | 50.4 | 1018.7 | 0.5 | ESE | 2.5 | ESE | 0.0 | 0.1 | |||||||||
| 01:15 | 27.7 | 25.0 | 52.8 | 1018.7 | 2.5 | ESE | 4.2 | SE | 0.0 | 0.1 | |||||||||
| 01:20 | 27.6 | 24.7 | 56.3 | 1018.7 | 4.1 | E | 6.4 | ESE | 0.0 | 0.1 | |||||||||
| 01:25 | 27.5 | 24.7 | 58.3 | 1018.8 | 2.4 | E | 5.6 | E | 0.0 | 0.1 | |||||||||
| 01:30 | 27.3 | 24.6 | 59.0 | 1018.7 | 0.0 | NNE | 1.1 | NNE | 0.0 | 0.1 | |||||||||
| 01:35 | 27.2 | 24.4 | 59.8 | 1018.7 | 0.0 | NNE | 0.0 | NNE | 0.0 | 0.1 | |||||||||
| 01:40 | 27.1 | 24.2 | 60.5 | 1018.7 | 0.7 | ESE | 3.5 | SE | 0.0 | 0.1 | |||||||||
| 01:45 | 26.9 | 24.0 | 61.5 | 1018.7 | 1.7 | E | 3.5 | E | 0.0 | 0.1 | |||||||||
| 01:50 | 26.7 | 23.9 | 62.6 | 1018.8 | 1.1 | ENE | 3.2 | NNE | 0.0 | 0.1 | |||||||||
| 01:55 | 26.5 | 23.9 | 63.1 | 1018.8 | 1.0 | NNE | 4.6 | NNE | 0.0 | 0.1 | |||||||||
| 02:00 | 26.4 | 23.8 | 63.1 | 1018.8 | 0.4 | NW | 2.8 | NNW | 0.0 | 0.1 | |||||||||
| 02:05 | 26.1 | 23.7 | 63.7 | 1018.8 | 1.1 | NW | 3.5 | NNW | 0.0 | 0.1 | |||||||||
| 02:10 | 25.9 | 23.5 | 65.3 | 1018.9 | 2.1 | NNW | 4.9 | NNW | 0.0 | 0.1 | |||||||||
| 02:15 | 25.9 | 23.4 | 65.9 | 1018.9 | 1.2 | NNW | 3.5 | N | 0.0 | 0.1 | |||||||||
| 02:20 | 25.8 | 23.3 | 66.2 | 1018.9 | 0.0 | NNE | 0.0 | NNW | 0.0 | 0.1 | |||||||||
| 02:25 | 25.6 | 23.0 | 66.6 | 1018.9 | 2.2 | NW | 4.2 | NW | 0.0 | 0.1 | |||||||||
| 02:30 | 25.4 | 22.9 | 68.3 | 1018.9 | 2.5 | NW | 3.9 | NNW | 0.0 | 0.1 | |||||||||
| 02:35 | 25.5 | 22.8 | 67.5 | 1018.9 | 2.6 | NW | 4.2 | NNW | 0.0 | 0.1 | |||||||||
| 02:40 | 25.6 | 22.9 | 67.4 | 1019.0 | 2.9 | NNW | 4.2 | NNW | 0.0 | 0.1 | |||||||||
| 02:45 | 25.6 | 23.1 | 67.3 | 1019.0 | 2.2 | NNW | 3.2 | NNW | 0.0 | 0.1 | |||||||||
| 02:50 | 25.6 | 23.2 | 67.5 | 1018.9 | 1.8 | NNW | 3.2 | NNW | 0.0 | 0.1 | |||||||||
| 02:55 | 25.6 | 23.2 | 67.6 | 1018.9 | 3.2 | NNW | 4.9 | NNW | 0.0 | 0.1 | |||||||||
| 03:00 | 25.6 | 23.2 | 67.7 | 1018.9 | 3.2 | NNW | 4.2 | NNW | 0.0 | 0.1 | |||||||||
| 03:05 | 25.6 | 23.4 | 67.4 | 1018.9 | 4.0 | NNW | 5.6 | NNW | 0.0 | 0.1 | |||||||||
| 03:10 | 25.5 | 23.4 | 67.2 | 1018.9 | 6.1 | NNW | 7.1 | N | 0.0 | 0.1 | |||||||||
| 03:15 | 25.6 | 23.6 | 66.1 | 1018.9 | 5.2 | NNW | 6.7 | NNW | 0.0 | 0.1 | |||||||||
| 03:20 | 25.8 | 23.9 | 63.6 | 1018.9 | 5.5 | NNW | 7.4 | NNW | 0.0 | 0.1 | |||||||||
| 03:25 | 25.9 | 23.9 | 60.2 | 1018.9 | 4.2 | NNW | 7.1 | NNW | 0.0 | 0.1 | |||||||||
| 03:30 | 25.8 | 23.8 | 59.8 | 1018.9 | 0.0 | N | 1.4 | N | 0.0 | 0.1 | |||||||||
| 03:35 | 25.7 | 23.5 | 59.9 | 1018.9 | 1.4 | ENE | 2.8 | NE | 0.0 | 0.1 | |||||||||
| 03:40 | 25.5 | 23.1 | 60.2 | 1018.9 | 2.6 | ENE | 3.5 | ENE | 0.0 | 0.1 | |||||||||
| 03:45 | 25.5 | 22.7 | 60.8 | 1018.9 | 0.9 | ENE | 3.2 | ENE | 0.0 | 0.1 | |||||||||
| 03:50 | 25.7 | 22.5 | 60.2 | 1018.9 | 1.6 | N | 4.2 | N | 0.0 | 0.1 | |||||||||
| 03:55 | 25.7 | 22.7 | 59.6 | 1019.0 | 3.6 | NNW | 5.6 | N | 0.0 | 0.1 | |||||||||
| 04:00 | 25.7 | 22.9 | 58.0 | 1019.0 | 4.4 | NNW | 5.6 | N | 0.0 | 0.1 | |||||||||
| 04:05 | 26.0 | 23.2 | 54.4 | 1019.0 | 5.1 | NNW | 6.7 | N | 0.0 | 0.1 | |||||||||
| 04:10 | 26.1 | 23.4 | 52.8 | 1018.9 | 4.9 | N | 6.4 | N | 0.0 | 0.1 | |||||||||
| 04:15 | 26.0 | 23.4 | 52.8 | 1018.9 | 1.9 | N | 3.9 | N | 0.0 | 0.1 | |||||||||
| 04:20 | 25.9 | 23.3 | 52.8 | 1018.9 | 1.0 | E | 2.8 | NE | 0.0 | 0.1 | |||||||||
| 04:25 | 26.0 | 23.2 | 51.8 | 1019.0 | 0.0 | ENE | 1.1 | ENE | 0.0 | 0.1 | |||||||||
| 04:30 | 26.3 | 23.1 | 50.5 | 1019.0 | 0.0 | NNE | 0.0 | SE | 0.0 | 0.1 | |||||||||
| 04:35 | 26.5 | 22.9 | 50.5 | 1019.0 | 0.0 | NNE | 0.0 | SE | 0.0 | 0.1 | |||||||||
| 04:40 | 26.7 | 22.9 | 50.3 | 1019.0 | 0.0 | NNE | 0.0 | SE | 0.0 | 0.1 | |||||||||
| 04:45 | 26.6 | 23.0 | 50.4 | 1019.1 | 0.1 | NNE | 2.1 | N | 0.0 | 0.1 | |||||||||
| 04:50 | 26.7 | 23.2 | 49.6 | 1019.1 | 2.1 | NNE | 2.8 | NNE | 0.0 | 0.1 | |||||||||
| 04:55 | 27.0 | 23.3 | 48.3 | 1019.1 | 0.0 | NNE | 0.0 | N | 0.0 | 0.1 | |||||||||
| 05:00 | 27.2 | 23.2 | 47.9 | 1019.1 | 0.0 | NNE | 0.0 | NNE | 0.0 | 0.2 | |||||||||
| 05:05 | 27.2 | 23.2 | 48.1 | 1019.1 | 0.0 | NNE | 0.0 | NNE | 0.0 | 0.5 | |||||||||
| 05:10 | 27.2 | 23.2 | 47.8 | 1019.2 | 0.0 | NNE | 0.0 | NNE | 0.0 | 1.2 | |||||||||
| 05:15 | 27.4 | 23.2 | 47.1 | 1019.3 | 0.0 | NNE | 0.0 | NNE | 0.0 | 2.1 | |||||||||
| 05:20 | 27.4 | 23.2 | 47.4 | 1019.3 | 0.0 | NNE | 0.0 | NNE | 0.0 | 3.5 | |||||||||
| 05:25 | 27.4 | 23.1 | 47.4 | 1019.4 | 1.0 | E | 3.2 | E | 0.0 | 5.9 | |||||||||
| 05:30 | 27.5 | 23.2 | 47.4 | 1019.4 | 1.9 | SE | 2.8 | ESE | 0.0 | 9.1 | |||||||||
| 05:35 | 27.3 | 23.3 | 48.7 | 1019.4 | 2.1 | SE | 3.9 | SE | 0.0 | 14.0 | |||||||||
| 05:40 | 27.0 | 23.4 | 49.9 | 1019.5 | 0.6 | SE | 2.1 | SE | 0.0 | 19.7 | |||||||||
| 05:45 | 26.7 | 23.5 | 50.6 | 1019.5 | 0.0 | NNE | 0.0 | SE | 0.0 | 25.7 | |||||||||
| 05:50 | 26.6 | 23.6 | 52.0 | 1019.6 | 0.0 | NNE | 0.0 | SE | 0.0 | 32.0 | |||||||||
| 05:55 | 26.5 | 23.8 | 55.4 | 1019.6 | 0.0 | NNE | 0.0 | SE | 0.0 | 37.9 | |||||||||
| 06:00 | 26.6 | 24.0 | 58.5 | 1019.7 | 0.0 | NNE | 0.0 | SE | 0.0 | 46.0 | |||||||||
| 06:05 | 26.6 | 24.4 | 58.5 | 1019.7 | 0.0 | NNE | 0.0 | SE | 0.0 | 70.1 | |||||||||
| 06:10 | 26.7 | 24.9 | 53.8 | 1019.8 | 0.0 | NNE | 0.0 | SE | 0.0 | 82.1 | |||||||||
| 06:15 | 26.9 | 25.8 | 52.8 | 1019.8 | 0.0 | NNE | 0.0 | SE | 0.0 | 94.5 | |||||||||
| 06:20 | 27.0 | 26.8 | 54.0 | 1019.8 | 0.0 | NNE | 0.0 | SE | 0.0 | 107.2 | |||||||||
| 06:25 | 27.1 | 27.7 | 54.2 | 1019.9 | 0.0 | NNE | 0.0 | SE | 0.0 | 119.6 | |||||||||
| 06:30 | 27.4 | 28.7 | 54.2 | 1020.0 | 0.6 | SE | 2.5 | SE | 0.0 | 131.8 | |||||||||
| 06:35 | 27.7 | 29.6 | 54.5 | 1020.0 | 2.9 | E | 4.9 | ENE | 0.0 | 145.2 | |||||||||
| 06:40 | 27.8 | 30.4 | 56.0 | 1020.1 | 0.6 | SE | 2.5 | ESE | 0.0 | 157.8 | |||||||||
| 06:45 | 27.9 | 31.2 | 55.8 | 1020.2 | 0.2 | WSW | 1.8 | W | 0.0 | 169.9 | |||||||||
| 06:50 | 28.0 | 32.0 | 53.1 | 1020.2 | 0.3 | NW | 2.5 | NNW | 0.0 | 185.9 | |||||||||
| 06:55 | 28.3 | 32.8 | 52.8 | 1020.2 | 1.8 | NW | 3.2 | NNW | 0.0 | 201.1 | |||||||||
| 07:00 | 28.6 | 33.5 | 50.5 | 1020.2 | 1.5 | NNW | 2.8 | N | 0.0 | 214.8 | |||||||||
| 07:05 | 29.1 | 34.1 | 50.5 | 1020.3 | 0.3 | SE | 2.8 | SE | 0.0 | 228.7 | |||||||||
| 07:10 | 29.6 | 34.7 | 48.6 | 1020.4 | 1.5 | SSE | 3.2 | SE | 0.0 | 241.5 | |||||||||
| 07:15 | 30.0 | 35.3 | 49.6 | 1020.4 | 2.0 | SSE | 4.2 | S | 0.0 | 254.5 | |||||||||
| 07:20 | 30.2 | 35.8 | 48.5 | 1020.4 | 3.3 | SSE | 4.6 | SE | 0.0 | 269.8 | |||||||||
| 07:25 | 30.3 | 36.2 | 48.7 | 1020.4 | 4.1 | S | 6.7 | SSE | 0.0 | 282.9 | |||||||||
| 07:30 | 30.4 | 36.5 | 47.6 | 1020.5 | 4.1 | S | 5.6 | S | 0.0 | 295.6 | |||||||||
| 07:35 | 30.5 | 36.8 | 48.5 | 1020.5 | 3.9 | SSE | 6.4 | SSE | 0.0 | 310.5 | |||||||||
| Máxima | 30.5 | 36.8 | 68.3 | 1020.5 | 12.9 | NNW | 21.5 | NNW | 0.0 | 310.5 | |||||||||
| Mínima | 20 | 20 | 45.6 | 1018.6 | |||||||||||||||
| Total | 0.0 | ||||||||||||||||||